Regional Weather Roundup
Issued by NWS

Home | Current Version | Previous Version | Graphics & Text | Print | Product List | Glossary On
Versions: 1 2 3 4 5 6 7 8 9 10 11 12 13 14 15 16 17 18 19 20 21 22 23 24 25 26 27 28 29 30 31 32 33 34 35 36 37 38 39 40 41 42 43 44 45 46 47 48 49 50
000
ASUS43 KLMK 011202
RWRKY
KENTUCKY REGIONAL WEATHER ROUNDUP
NATIONAL WEATHER SERVICE LOUISVILLE KY
700 AM EST SUN FEB 01 2015

NOTE "FAIR" INDICATES FEW OR NO CLOUDS BELOW 12,000 FEET
WITH NO SIGNIFICANT WEATHER AND/OR OBSTRUCTIONS TO VISIBILITY.

KYZ001>023-026-027-061>063-070>075-011300-
WESTERN AND SOUTH CENTRAL KENTUCKY

CITY           SKY/WX    TMP DP  RH WIND       PRES   REMARKS
PADUCAH        LGT RAIN  47  29  49 S14       29.86F
HENDERSON      CLOUDY    43  21  42 SE13      29.91F
OWENSBORO      CLOUDY    44  23  43 S10       29.95F
HOPKINSVILLE   CLOUDY    46  22  38 SE9       29.95F
BOWLING GREEN  CLOUDY    40  24  53 CALM      30.02F
GLASGOW        NOT AVBL
$$

KYZ024-025-028>034-038-045-046-053-011300-
NORTH CENTRAL KENTUCKY

CITY           SKY/WX    TMP DP  RH WIND       PRES   REMARKS
LOUISVILLE/SDF CLOUDY    40  19  43 SE14      30.02F WCI  32
LOUISVILLE/LOU CLOUDY    40  17  39 SE7       30.03F
FORT KNOX      CLOUDY    38  21  51 SE6       29.99F WCI  33
$$

KYZ035>037-039>044-047>052-055>060-089>105-011300-
NORTHEAST KENTUCKY

CITY           SKY/WX    TMP DP  RH WIND       PRES   REMARKS
LEXINGTON      CLOUDY    37  16  42 SE13      30.07F WCI  29
COVINGTON      LGT RAIN  35  28  75 E13       30.05F WCI  26
FRANKFORT      CLOUDY    39  16  39 SE12G20   30.04F WCI  32
$$

KYZ054-064>069-076>088-106>120-011300-
SOUTHEAST KENTUCKY

CITY           SKY/WX    TMP DP  RH WIND       PRES   REMARKS
JACKSON        CLOUDY    34  16  47 VRB3      30.11F
LONDON         CLOUDY    38  14  37 SE5       30.10F WCI  34
SOMERSET       NOT AVBL
MIDDLESBORO    NOT AVBL
MONTICELLO     CLOUDY    45  17  32 S8        30.11S
$$




USA.gov is the U.S. government's official web portal to all federal, state and local government web resources and services.